Tracking 20232 objects as of 18-Jan-2020
HD Live streaming from Space Station
objects crossing your sky now

FENGYUN 1C DEB

Track FENGYUN 1C DEB now!
10-day predictions


NORAD ID: 30023
Int'l Code: 1999-025MY
Perigee: 838.0 km
Apogee: 908.5 km
Inclination: 99.1 °
Period: 102.3 minutes
Semi major axis: 7244 km
RCS: 0.053 m2 (small)
Launch date: May 10, 1999
Source: People's Republic of China (PRC)
Launch site: Taiyaun Space Center, China (TSC)

Note: This is SATELLITE DEBRIS
aabbcc
Your satellite tracking list
Your tracking list is empty




NASA's NSSDC Master Catalog

Two Line Element Set (TLE):
1 30023U 99025MY  20018.27943911 +.00000129 +00000-0 +10190-3 0  9996
2 30023 099.0932 135.9113 0048701 310.5125 101.7296 14.08029491668376
Source of the keplerian elements: AFSPC